Location: Alulod
(14.2076°N, 120.8898°E)
Time: 03:22:06
(UTC+00:00)

Delta 2 Rocket - Pass Details

Date: 13 December 2025
Orbit: 351 x 490 km, 35.6° (Epoch: 15 January)

Event Time Altitude Azimuth Distance (km) Brightness Sun altitude
Exits shadow 19:38:47 -2° 65° (ENE) 2,464 7.2 -35.6°
Enters shadow 20:35:54 -67° 287° (WNW) 12,267 10.1 -22.5°
Maximum altitude 21:13:28 28° 31° (NNE) 719 4.0 -14.0°
